Вернуться в каталог

STARLINK-1185

АктивенСвязьVLEO
NORAD 45087·PAYLOAD·🇺🇸 United States

Запущен Jan 29, 2020 с Cape Canaveral Space Force Station

Loading…

Ближайшие Пролёты (ближайшие 24 часа)

TLE

СвежийSource: CelesTrak SupGP

Эпоха: Sep 14, 2026, 22:01 UTC

1 45087C 20006AV  26257.91784722  .00116750  00000+0  15922-2 0  2571
2 45087  53.1529  61.7934 0000576  36.7315  27.1319 15.56825057    12

Отслеживайте STARLINK-1185 в реальном времени с AllMySat

Download on the App Store